timestamp,surface_pressure_avg,surface_temp_avg,battery_voltage,lat,long
2018-02-20 00:00:00+00:00,288.1697,0.71,12.73,47.84626,-54.09684
2018-02-20 00:10:00+00:00,300.7897,1.35,12.73,47.84626,-54.09684
2018-02-20 00:20:00+00:00,298.1997,1.13,12.73,47.84626,-54.09684
2018-02-20 00:30:00+00:00,299.5664,0.94,12.73,47.84626,-54.09684
2018-02-20 00:40:00+00:00,315.6247,1.02,12.81,47.84626,-54.09684
2018-02-20 00:50:00+00:00,316.7747,0.99,12.81,47.84626,-54.09684
2018-02-20 01:00:00+00:00,317.7163,0.6,12.73,47.84626,-54.09684
2018-02-20 01:10:00+00:00,329.1346,0.92,12.65,47.84626,-54.09684
2018-02-20 01:20:00+00:00,340.043,1.19,12.73,47.84626,-54.09684
2018-02-20 01:30:00+00:00,340.1362,1.0,12.73,47.84626,-54.09684
2018-02-20 01:40:00+00:00,340.178,0.7,12.73,47.84626,-54.09684
2018-02-20 01:50:00+00:00,345.718,1.06,12.73,47.84626,-54.09684
2018-02-20 02:00:00+00:00,345.0563,1.23,12.73,47.84626,-54.09684
2018-02-20 02:10:00+00:00,339.563,1.18,12.65,47.84626,-54.09684
2018-02-20 02:20:00+00:00,337.0963,1.17,12.73,47.84626,-54.09684
2018-02-20 02:30:00+00:00,340.4063,1.2,12.73,47.84626,-54.09684
2018-02-20 02:40:00+00:00,333.9529,1.1,12.73,47.84626,-54.09684
2018-02-20 02:50:00+00:00,332.1312,1.2,12.73,47.84626,-54.09684
2018-02-20 03:00:00+00:00,332.7014,1.2,12.73,47.84626,-54.09684
2018-02-20 03:10:00+00:00,331.4947,1.1,12.65,47.84626,-54.09684
2018-02-20 03:20:00+00:00,325.5263,1.0,12.73,47.84626,-54.09684
2018-02-20 03:30:00+00:00,320.2797,1.0,12.73,47.84626,-54.09684
2018-02-20 03:40:00+00:00,322.2863,1.16,12.73,47.84626,-54.09684
2018-02-20 03:50:00+00:00,319.778,1.09,12.73,47.84626,-54.09684
2018-02-20 04:00:00+00:00,315.7579,0.8,12.73,47.84626,-54.09684
2018-02-20 04:10:00+00:00,311.4697,0.84,12.65,47.84626,-54.09684
2018-02-20 04:20:00+00:00,308.2813,1.03,12.73,47.84626,-54.09684
2018-02-20 04:30:00+00:00,309.613,1.0,12.73,47.84626,-54.09684
2018-02-20 04:40:00+00:00,303.9147,0.8,12.73,47.84626,-54.09684
2018-02-20 04:50:00+00:00,300.5997,0.67,12.73,47.84626,-54.09684
2018-02-20 05:00:00+00:00,294.5997,0.75,12.65,47.84626,-54.09684
2018-02-20 05:10:00+00:00,284.7848,0.84,12.65,47.84626,-54.09684
2018-02-20 05:20:00+00:00,270.5864,0.8,12.73,47.84626,-54.09684
2018-02-20 05:30:00+00:00,261.5281,0.8,12.73,47.84626,-54.09684
2018-02-20 05:40:00+00:00,253.7764,0.8,12.73,47.84626,-54.09684
2018-02-20 05:50:00+00:00,238.7314,0.87,12.73,47.84626,-54.09684
2018-02-20 06:00:00+00:00,227.7564,0.8,12.65,47.84626,-54.09684
2018-02-20 06:10:00+00:00,222.2214,0.7,12.65,47.84626,-54.09684
2018-02-20 06:20:00+00:00,210.2431,0.6,12.73,47.84626,-54.09684
2018-02-20 06:30:00+00:00,197.2615,0.56,12.73,47.84626,-54.09684
2018-02-20 06:40:00+00:00,195.2264,0.6,12.73,47.84626,-54.09684
2018-02-20 06:50:00+00:00,194.3715,0.69,12.73,47.84626,-54.09684
2018-02-20 07:00:00+00:00,183.7581,0.68,12.65,47.84626,-54.09684
2018-02-20 07:10:00+00:00,171.7348,0.59,12.65,47.84626,-54.09684
2018-02-20 07:20:00+00:00,171.7414,0.5,12.73,47.84626,-54.09684
2018-02-20 07:30:00+00:00,172.2048,0.5,12.73,47.84626,-54.09684
2018-02-20 07:40:00+00:00,164.5181,0.5,12.73,47.84626,-54.09684
2018-02-20 07:50:00+00:00,163.9565,0.5,12.73,47.84626,-54.09684
2018-02-20 08:00:00+00:00,171.5398,0.52,12.65,47.84626,-54.09684
2018-02-20 08:10:00+00:00,173.1582,0.5,12.65,47.84626,-54.09684
2018-02-20 08:20:00+00:00,171.6631,0.5,12.73,47.84626,-54.09684
2018-02-20 08:30:00+00:00,176.5398,0.78,12.73,47.84626,-54.09684
2018-02-20 08:40:00+00:00,178.5215,0.9,12.73,47.84626,-54.09684
2018-02-20 08:50:00+00:00,171.6931,0.8,12.73,47.84626,-54.09684
2018-02-20 09:00:00+00:00,176.5015,0.72,12.65,47.84626,-54.09684
2018-02-20 09:10:00+00:00,185.6798,1.0,12.65,47.84626,-54.09684
2018-02-20 09:20:00+00:00,180.5465,1.09,12.73,47.84626,-54.09684
2018-02-20 09:30:00+00:00,181.8815,0.95,12.73,47.84626,-54.09684
2018-02-20 09:40:00+00:00,196.0881,0.92,12.73,47.84626,-54.09684
2018-02-20 09:50:00+00:00,202.8331,0.98,12.73,47.84626,-54.09684
2018-02-20 10:00:00+00:00,206.7464,1.04,12.65,47.84626,-54.09684
2018-02-20 10:10:00+00:00,214.2298,1.04,12.65,47.84626,-54.09684
2018-02-20 10:20:00+00:00,218.7031,1.05,12.73,47.84626,-54.09684
2018-02-20 10:30:00+00:00,220.1047,1.09,12.73,47.84626,-54.09684
2018-02-20 10:40:00+00:00,225.9998,1.06,12.73,47.84626,-54.09684
2018-02-20 10:50:00+00:00,233.5897,1.0,12.73,47.84626,-54.09684
2018-02-20 11:00:00+00:00,233.1115,1.0,12.65,47.84626,-54.09684
2018-02-20 11:10:00+00:00,236.8815,0.95,12.65,47.84626,-54.09684
2018-02-20 11:20:00+00:00,248.6731,0.9,12.73,47.84626,-54.09684
2018-02-20 11:30:00+00:00,256.4698,0.9,12.73,47.84626,-54.09684
2018-02-20 11:40:00+00:00,255.0281,0.9,12.73,47.84626,-54.09684
2018-02-20 11:50:00+00:00,260.8531,0.9,12.73,47.84626,-54.09684
2018-02-20 12:00:00+00:00,273.1047,0.9,12.65,47.84626,-54.09684
2018-02-20 12:10:00+00:00,274.6147,0.9,12.65,47.84626,-54.09684
2018-02-20 12:20:00+00:00,271.6548,0.9,12.73,47.84626,-54.09684
2018-02-20 12:30:00+00:00,282.8047,0.82,12.73,47.84626,-54.09684
2018-02-20 12:40:00+00:00,292.2564,0.84,12.73,47.84626,-54.09684
2018-02-20 12:50:00+00:00,293.4614,0.8,12.73,47.84626,-54.09684
2018-02-20 13:00:00+00:00,299.2197,0.8,12.73,47.84626,-54.09684
2018-02-20 13:10:00+00:00,313.2446,0.8,12.65,47.84626,-54.09684
2018-02-20 13:20:00+00:00,323.5096,0.8,12.73,47.84626,-54.09684
2018-02-20 13:30:00+00:00,327.5746,0.8,12.73,47.84626,-54.09684
2018-02-20 13:40:00+00:00,330.318,0.8,12.73,47.84626,-54.09684
2018-02-20 13:50:00+00:00,338.0013,0.79,12.81,47.84626,-54.09684
2018-02-20 14:00:00+00:00,342.0779,0.86,12.73,47.84626,-54.09684
2018-02-20 14:10:00+00:00,342.343,0.9,12.73,47.84626,-54.09684
2018-02-20 14:20:00+00:00,340.6497,0.9,12.81,47.84626,-54.09684
2018-02-20 14:30:00+00:00,337.6879,0.9,12.89,47.84626,-54.09684
2018-02-20 14:40:00+00:00,342.123,0.9,12.89,47.84626,-54.09684
2018-02-20 14:50:00+00:00,342.0312,0.9,12.89,47.84626,-54.09684
2018-02-20 15:00:00+00:00,338.7263,0.9,12.81,47.84626,-54.09684
2018-02-20 15:10:00+00:00,333.8279,0.9,12.81,47.84626,-54.09684
2018-02-20 15:20:00+00:00,331.7313,0.9,12.89,47.84626,-54.09684
2018-02-20 15:30:00+00:00,331.0447,0.9,12.89,47.84626,-54.09684
2018-02-20 15:40:00+00:00,325.738,0.9,12.97,47.84626,-54.09684
2018-02-20 15:50:00+00:00,322.9413,0.9,12.97,47.84626,-54.09684
2018-02-20 16:00:00+00:00,326.0264,0.9,12.89,47.84626,-54.09684
2018-02-20 16:10:00+00:00,319.2614,0.9,12.89,47.84626,-54.09684
2018-02-20 16:20:00+00:00,312.0814,0.87,13.05,47.84626,-54.09684
2018-02-20 16:30:00+00:00,307.5764,0.87,13.05,47.84626,-54.09684
2018-02-20 16:40:00+00:00,306.1246,0.87,13.05,47.84626,-54.09684
2018-02-20 16:50:00+00:00,296.9397,0.89,13.05,47.84626,-54.09684
2018-02-20 17:00:00+00:00,291.5814,0.9,13.13,47.84626,-54.09684
2018-02-20 17:10:00+00:00,288.0646,0.9,13.53,47.84626,-54.09684
2018-02-20 17:20:00+00:00,279.2614,0.9,13.68,47.84626,-54.09684
2018-02-20 17:30:00+00:00,269.9164,0.9,13.76,47.84626,-54.09684
2018-02-20 17:40:00+00:00,265.5564,0.9,13.76,47.84626,-54.09684
2018-02-20 17:50:00+00:00,257.6764,0.9,13.76,47.84626,-54.09684
2018-02-20 18:00:00+00:00,247.5764,0.94,13.6,47.84626,-54.09684
2018-02-20 18:10:00+00:00,239.6013,0.93,13.53,47.84626,-54.09684
2018-02-20 18:20:00+00:00,229.0531,0.91,13.6,47.84626,-54.09684
2018-02-20 18:30:00+00:00,216.8947,0.93,13.21,47.84626,-54.09684
2018-02-20 18:40:00+00:00,206.0631,0.93,13.21,47.84626,-54.09684
2018-02-20 18:50:00+00:00,197.8298,0.95,13.29,47.84626,-54.09684
2018-02-20 19:00:00+00:00,192.3265,0.96,13.29,47.84626,-54.09684
2018-02-20 19:10:00+00:00,186.6281,0.96,13.05,47.84626,-54.09684
2018-02-20 19:20:00+00:00,181.3348,0.99,13.13,47.84626,-54.09684
2018-02-20 19:30:00+00:00,176.9698,1.0,13.05,47.84626,-54.09684
2018-02-20 19:40:00+00:00,177.5015,0.96,13.13,47.84626,-54.09684
2018-02-20 19:50:00+00:00,181.0281,0.9,13.05,47.84626,-54.09684
2018-02-20 20:00:00+00:00,174.0165,0.89,12.97,47.84626,-54.09684
2018-02-20 20:10:00+00:00,170.1682,0.8,12.97,47.84626,-54.09684
2018-02-20 20:20:00+00:00,178.4148,0.8,12.97,47.84626,-54.09684
2018-02-20 20:30:00+00:00,186.0265,0.8,12.97,47.84626,-54.09684
2018-02-20 20:40:00+00:00,190.8981,0.8,12.97,47.84626,-54.09684
2018-02-20 20:50:00+00:00,195.2215,0.8,12.97,47.84626,-54.09684
2018-02-20 21:00:00+00:00,196.8881,0.83,12.89,47.84626,-54.09684
2018-02-20 21:10:00+00:00,196.0815,0.87,12.81,47.84626,-54.09684
2018-02-20 21:20:00+00:00,198.2964,0.89,12.89,47.84626,-54.09684
2018-02-20 21:30:00+00:00,204.1631,0.9,12.89,47.84626,-54.09684
2018-02-20 21:40:00+00:00,208.9564,0.9,12.89,47.84626,-54.09684
2018-02-20 21:50:00+00:00,213.1248,0.9,12.89,47.84626,-54.09684
2018-02-20 22:00:00+00:00,217.6464,0.9,12.81,47.84626,-54.09684
2018-02-20 22:10:00+00:00,217.8831,0.89,12.81,47.84626,-54.09684
2018-02-20 22:20:00+00:00,219.583,0.8,12.89,47.84626,-54.09684
2018-02-20 22:30:00+00:00,230.9364,0.8,12.89,47.84626,-54.09684
2018-02-20 22:40:00+00:00,238.1081,0.8,12.89,47.84626,-54.09684
2018-02-20 22:50:00+00:00,232.5481,0.79,12.89,47.84626,-54.09684
2018-02-20 23:00:00+00:00,232.3781,0.79,12.81,47.84626,-54.09684
2018-02-20 23:10:00+00:00,246.6731,0.8,12.81,47.84626,-54.09684
2018-02-20 23:20:00+00:00,253.338,0.8,12.89,47.84626,-54.09684
2018-02-20 23:30:00+00:00,251.1981,0.8,12.81,47.84626,-54.09684
2018-02-20 23:40:00+00:00,256.9048,0.7,12.89,47.84626,-54.09684
2018-02-20 23:50:00+00:00,265.0014,0.7,12.89,47.84626,-54.09684
